Torna al catalogo

CZ-6A DEB

AttivoPO
NORAD 56600·DEBRIS·🇨🇳 China

Lanciato Nov 11, 2022 da Taiyuan Satellite Launch Center

Loading…

Prossimi Passaggi (prossime 24 ore)

TLE

AggiornatoSource: Space-Track

Epoca: Sep 13, 2026, 16:46 UTC

1 56600U 22151ADY 26256.69913067  .00042898  00000-0  28304-2 0  9990
2 56600  98.6181 344.2374 0031619 301.5382  58.2756 15.06899237189844

Traccia CZ-6A DEB in tempo reale con AllMySat

Download on the App Store